Weather History for KLWD - March, 2012

Change the Weather History Date:

Thursday, March 29, 2012

  Actual Average Record
Temperature  
Mean Temperature 59 °F 46 °F  
Max Temperature 65 °F 56 °F 86 °F (1986)
Min Temperature 52 °F 35 °F 9 °F (1969)
Degree Days  
Heating Degree Days 6 19  
Month to date heating degree days 313 735  
Since 1 July heating degree days 4441 5452  
Cooling Degree Days 0 0  
Month to date cooling degree days 26 0  
Year to date cooling degree days 26 0  
Growing Degree Days 8 (Base 50)    
Moisture  
Dew Point 52 °F    
Average Humidity 83    
Maximum Humidity 100    
Minimum Humidity 66    
Precipitation  
Precipitation 1.01 in 0.09 in 1.01 in (2012)
Month to date precipitation 3.74 2.08  
Year to date precipitation 6.01  
Sea Level Pressure  
Sea Level Pressure 29.83 in    
Wind  
Wind Speed 10 mph (ESE)    
Max Wind Speed 29 mph    
Max Gust Speed 43 mph    
Visibility 8 miles    
Events Rain , Thunderstorm    
T = Trace of Precipitation, MM = Missing Value Source: NWS Daily Summary

Daily Weather History Graph

Daily Weather History Graph

Search for Another Location

Airport or City:

Trip Planner

Search our weather history database for the weather conditions in past years. The results will help you decide how hot, cold, wet, or windy it might be!

Date:

Astronomy

Mar. 29, 2012 Rise Set
Actual Time 7:03 AM CDT 7:37 PM CDT
Civil Twilight 6:35 AM CDT 8:05 PM CDT
Nautical Twilight 6:03 AM CDT 8:37 PM CDT
Astronomical Twilight 5:30 AM CDT 9:11 PM CDT
Moon 11:11 AM CDT (3/29) 1:30 AM CDT (3/29)
Length of Visible Light 13h 29m
Length of Day
12h 34m
Waxing Crescent, 39% of the Moon is Illuminated
Mar 29
Waxing Crescent
Mar 30
First Quarter
Apr 6
Full
Apr 13
Last Quarter
Apr 21
New

Hourly Weather History & Observations

Time (CDT) Temp. Dew Point Humidity Pressure Visibility Wind Dir Wind Speed Gust Speed Precip Events Conditions
12:53 AM 55.9 °F 46.9 °F 72% 29.96 in 10.0 mi Calm Calm - 0.08 in Rain , Thunderstorm Light Thunderstorms and Rain
1:53 AM 53.1 °F 48.9 °F 86% 29.99 in 6.0 mi East 9.2 mph - 0.17 in Rain , Thunderstorm Light Rain
2:00 AM 53.6 °F 48.2 °F 82% 30.01 in 9.0 mi ENE 8.1 mph - 0.00 in Rain Light Rain
2:53 AM 53.1 °F 48.0 °F 83% 29.96 in 10.0 mi East 9.2 mph - 0.05 in   Overcast
3:53 AM 54.0 °F 46.0 °F 75% 29.94 in 10.0 mi ESE 9.2 mph 18.4 mph N/A   Overcast
4:53 AM 55.0 °F 45.0 °F 69% 29.93 in 10.0 mi SE 9.2 mph - N/A   Mostly Cloudy
5:53 AM 55.0 °F 46.0 °F 72% 29.92 in 10.0 mi SE 8.1 mph - 0.02 in Rain Light Rain
6:53 AM 54.0 °F 46.0 °F 75% 29.94 in 10.0 mi ESE 6.9 mph - 0.00 in   Overcast
7:53 AM 52.0 °F 48.9 °F 89% 29.94 in 9.0 mi East 8.1 mph - 0.04 in Rain Light Rain
8:42 AM 51.8 °F 50.0 °F 94% 29.94 in 10.0 mi SE 5.8 mph - 0.10 in Rain , Thunderstorm Light Rain
8:53 AM 52.0 °F 51.1 °F 97% 29.92 in 4.0 mi East 10.4 mph - 0.11 in Rain Light Rain
9:00 AM 51.8 °F 51.8 °F 100% 29.92 in 5.0 mi ESE 6.9 mph 16.1 mph 0.01 in Rain , Thunderstorm Light Rain
9:12 AM 53.6 °F 51.8 °F 94% 29.93 in 8.0 mi South 5.8 mph - 0.02 in Rain , Thunderstorm Light Rain
9:21 AM 53.6 °F 51.8 °F 94% 29.92 in 8.0 mi Variable 6.9 mph - 0.02 in Rain Light Rain
9:53 AM 53.1 °F 52.0 °F 96% 29.91 in 10.0 mi ESE 5.8 mph - 0.05 in   Overcast
10:53 AM 54.0 °F 53.1 °F 97% 29.92 in 10.0 mi ESE 9.2 mph - N/A   Overcast
11:53 AM 54.0 °F 53.1 °F 97% 29.89 in 7.0 mi ESE 9.2 mph - N/A   Overcast
12:53 PM 54.0 °F 53.1 °F 97% 29.87 in 4.0 mi ESE 8.1 mph 18.4 mph 0.01 in Rain , Thunderstorm Light Thunderstorms and Rain
1:43 PM 57.2 °F 55.4 °F 94% 29.84 in 10.0 mi ESE 11.5 mph 19.6 mph 0.08 in   Mostly Cloudy
1:53 PM 57.9 °F 55.0 °F 90% 29.84 in 10.0 mi ESE 15.0 mph 20.7 mph 0.08 in   Mostly Cloudy
2:53 PM 60.1 °F 55.9 °F 86% 29.82 in 10.0 mi ESE 10.4 mph 17.3 mph N/A   Mostly Cloudy
3:53 PM 64.0 °F 55.9 °F 75% 29.79 in 10.0 mi SE 11.5 mph 18.4 mph N/A   Partly Cloudy
4:53 PM 64.9 °F 55.9 °F 73% 29.75 in 10.0 mi ESE 10.4 mph 18.4 mph N/A   Clear
5:53 PM 63.0 °F 55.9 °F 78% 29.76 in 10.0 mi East 8.1 mph - N/A   Partly Cloudy
6:53 PM 61.0 °F 55.9 °F 83% 29.75 in 10.0 mi East 10.4 mph - N/A   Overcast
7:53 PM 59.0 °F 55.0 °F 87% 29.73 in 10.0 mi ESE 9.2 mph 18.4 mph N/A   Mostly Cloudy
8:53 PM 57.9 °F 54.0 °F 87% 29.71 in 10.0 mi ESE 10.4 mph 17.3 mph N/A   Partly Cloudy
9:53 PM 55.9 °F 53.1 °F 90% 29.70 in 10.0 mi ESE 10.4 mph 19.6 mph N/A   Mostly Cloudy
10:19 PM 57.2 °F 53.6 °F 88% 29.69 in 10.0 mi SE 12.7 mph 21.9 mph N/A Thunderstorm Overcast
10:44 PM 57.2 °F 53.6 °F 88% 29.66 in 10.0 mi ESE 11.5 mph 25.3 mph 0.00 in   Mostly Cloudy
10:53 PM 57.0 °F 53.1 °F 87% 29.68 in 10.0 mi SE 12.7 mph 20.7 mph 0.00 in   Mostly Cloudy
11:08 PM 57.2 °F 53.6 °F 88% 29.66 in 10.0 mi SE 13.8 mph 21.9 mph N/A Thunderstorm Partly Cloudy
11:35 PM 60.8 °F 53.6 °F 77% 29.74 in 4.0 mi SW 13.8 mph 33.4 mph 0.00 in Rain , Thunderstorm Thunderstorms and Rain
11:37 PM 60.8 °F 53.6 °F 77% 29.70 in 1.5 mi SSE 28.8 mph 42.6 mph 0.02 in Rain , Thunderstorm Heavy Thunderstorms and Rain
11:40 PM 60.8 °F 55.4 °F 82% 29.68 in 1.0 mi SSE 25.3 mph 42.6 mph 0.07 in Rain , Thunderstorm Heavy Thunderstorms and Rain
11:53 PM 59.0 °F 55.0 °F 87% 29.71 in 5.0 mi South 12.7 mph 18.4 mph 0.45 in Rain , Thunderstorm Light Thunderstorms and Rain